This demonstration page uses our WeatherBlox Daily Observations layout. Learn more.

Left ArrowRight Arrow

39.51506, -84.39828

Hourly Observations for March 13, 2021

Temp ( °F °C ) Dew Point ( °F °C ) Humidity (%) Winds ( mph kmh ) Pressure ( in mb ) Visibility ( mi km ) Precip ( " mm )
12:15 am 00:15 Clear 45 7.2 22 -5.8 39 39 N 10 17 30.46 1031 10 16 N/A
12:35 am 00:35 Clear 44 6.8 23 -5.2 42 42 N 8 13 30.45 1031 10 16 N/A
12:55 am 00:55 Clear 44 6.6 23 -5.2 43 43 N 9 15 30.44 1031 10 16 N/A
1:15 am 01:15 Clear 43 6.3 23 -5 45 45 N 9 15 30.45 1031 10 16 N/A
1:35 am 01:35 Partly Cloudy 42 5.7 23 -5.2 46 46 N 9 15 30.45 1031 10 16 N/A
1:55 am 01:55 Clear 42 5.7 21 -6.1 43 43 N 9 15 30.47 1032 10 16 N/A
2:15 am 02:15 Clear 41 5.2 20 -6.9 42 42 NNE 8 13 30.46 1032 10 16 N/A
2:35 am 02:35 Clear 40 4.7 20 -6.7 44 44 N 8 13 30.47 1032 10 16 N/A
2:55 am 02:55 Clear 40 4.4 20 -6.8 44 44 NNE 3 6 30.46 1032 10 16 N/A
3:15 am 03:15 Clear 39 4 21 -6.3 47 47 N 3 6 30.46 1032 10 16 N/A
3:35 am 03:35 Clear 38 3.5 21 -6.1 50 50 N 6 9 30.47 1032 10 16 N/A
3:55 am 03:55 Clear 38 3.3 21 -6.1 51 51 NNE 5 7 30.47 1032 10 16 N/A
4:15 am 04:15 Clear 37 2.9 22 -5.8 53 53 NNE 8 13 30.47 1032 10 16 N/A
4:35 am 04:35 Clear 37 2.9 20 -6.4 51 51 NNE 7 11 30.48 1032 10 16 N/A
4:55 am 04:55 Clear 37 2.7 20 -6.6 51 51 N 6 9 30.48 1032 10 16 N/A
5:15 am 05:15 Clear 36 2.4 20 -6.8 51 51 NNE 8 13 30.48 1032 10 16 N/A
5:35 am 05:35 Clear 36 2 19 -7 52 52 NNE 7 11 30.49 1033 10 16 N/A
5:55 am 05:55 Clear 35 1.7 20 -6.8 54 54 NNE 7 11 30.49 1033 10 16 N/A
6:15 am 06:15 Clear 35 1.7 20 -6.7 54 54 NNE 9 15 30.48 1032 10 16 N/A
6:35 am 06:35 Clear 34 1.3 19 -7.1 54 54 NNE 7 11 30.47 1032 10 16 N/A
6:55 am 06:55 Sunny 35 1.4 18 -7.8 51 51 N 3 6 30.49 1033 10 16 N/A
7:15 am 07:15 Sunny 33 0.7 19 -7.3 55 55 N N/A 30.50 1033 10 16 N/A
7:30 am 07:30 Sunny 33 0.6 21 -6.2 61 61 NW 3 6 30.50 1033 10 16 N/A
7:55 am 07:55 Sunny 35 1.6 21 -6.3 56 56 N N/A 30.51 1033 10 16 N/A
8:15 am 08:15 Sunny 36 2.1 21 -6 55 55 N 6 9 30.51 1033 10 16 N/A
8:35 am 08:35 Sunny 37 2.7 20 -6.7 50 50 NE 5 7 30.52 1033 10 16 N/A
8:55 am 08:55 Sunny 38 3.3 22 -5.8 52 52 NE 6 9 30.52 1033 10 16 N/A
9:15 am 09:15 Sunny 38 3.5 22 -5.7 51 51 NNE 7 11 30.52 1033 10 16 N/A
9:35 am 09:35 Sunny 39 4.1 23 -5.2 51 51 NE 5 7 30.51 1033 10 16 N/A
9:55 am 09:55 Sunny 41 4.9 24 -4.4 51 51 ENE 5 7 30.50 1033 10 16 N/A
10:15 am 10:15 Sunny 41 5.2 24 -4.2 51 51 E 6 9 30.50 1033 10 16 N/A
10:35 am 10:35 Sunny 42 5.7 25 -3.9 50 50 N N/A 30.50 1033 10 16 N/A
10:55 am 10:55 Sunny 44 6.4 25 -3.9 48 48 ESE 5 7 30.49 1032 10 16 N/A
11:15 am 11:15 Sunny 45 7.1 24 -4.3 44 44 ENE 3 6 30.48 1032 10 16 N/A
11:35 am 11:35 Sunny 45 7.2 26 -3.5 47 47 NNE 3 6 30.48 1032 10 16 N/A
11:55 am 11:55 Sunny 46 7.7 24 -4.2 43 43 NE 5 7 30.48 1032 10 16 N/A
12:15 pm 12:15 Sunny 47 8.2 24 -4.4 41 41 SE 3 6 30.46 1032 10 16 N/A
12:35 pm 12:35 Sunny 47 8.4 23 -5.1 38 38 N N/A 30.45 1031 10 16 N/A
12:55 pm 12:55 Sunny 49 9.2 24 -4.7 37 37 NE 3 6 30.45 1031 10 16 N/A
1:15 pm 13:15 Sunny 49 9.5 24 -4.2 38 38 NE 3 6 30.43 1030 10 16 N/A
1:35 pm 13:35 Sunny 50 9.8 23 -5.2 35 35 ENE 7 11 30.42 1030 10 16 N/A
1:55 pm 13:55 Sunny 50 9.9 22 -5.4 34 34 NE 5 7 30.42 1030 10 16 N/A
2:15 pm 14:15 Sunny 50 10 23 -5 35 35 N 5 7 30.41 1030 10 16 N/A
2:35 pm 14:35 Sunny 50 10 23 -5 35 35 NE 6 9 30.41 1030 10 16 N/A
2:55 pm 14:55 Sunny 50 9.9 22 -5.4 34 34 N 6 9 30.40 1029 10 16 N/A
3:15 pm 15:15 Sunny 50 10.2 23 -5.1 34 34 N 5 7 30.40 1029 10 16 N/A
3:35 pm 15:35 Sunny 50 10.2 21 -6 32 32 N 6 9 30.40 1029 10 16 N/A
3:55 pm 15:55 Sunny 51 10.4 24 -4.7 35 35 N 6 9 30.40 1029 10 16 N/A
4:15 pm 16:15 Sunny 50 10.1 22 -5.4 33 33 NW 5 7 30.38 1029 10 16 N/A
4:35 pm 16:35 Sunny 50 10.1 22 -5.8 32 32 N 5 7 30.37 1028 10 16 N/A
4:55 pm 16:55 Sunny 50 10 22 -5.6 33 33 NNE 5 7 30.37 1028 10 16 N/A
5:15 pm 17:15 Sunny 50 9.9 23 -5.1 35 35 N 6 9 30.37 1028 10 16 N/A
5:35 pm 17:35 Sunny 50 9.8 23 -5 35 35 N 3 6 30.37 1028 10 16 N/A
5:55 pm 17:55 Sunny 49 9.6 23 -4.9 36 36 N 3 6 30.37 1028 10 16 N/A
6:15 pm 18:15 Sunny 49 9.2 24 -4.6 38 38 N 5 7 30.37 1028 10 16 N/A
6:35 pm 18:35 Sunny 48 8.9 23 -5.2 37 37 N N/A 30.37 1029 10 16 N/A
6:55 pm 18:55 Clear 47 8.2 27 -2.6 47 47 N 3 6 30.38 1029 10 16 N/A
7:15 pm 19:15 Clear 43 6.2 30 -1.1 60 60 NNW 3 6 30.38 1029 10 16 N/A
7:35 pm 19:35 Clear 38 3.3 31 -0.7 75 75 N N/A 30.39 1029 10 16 N/A
7:55 pm 19:55 Clear 40 4.5 29 -1.7 64 64 N N/A 30.38 1029 10 16 N/A
8:15 pm 20:15 Clear 39 3.8 27 -2.6 63 63 N 3 6 30.39 1029 10 16 N/A
8:35 pm 20:35 Clear 36 2.3 28 -2.3 72 72 N 5 7 30.39 1029 10 16 N/A
8:55 pm 20:55 Clear 37 2.7 28 -2.3 70 70 N 3 6 30.38 1029 10 16 N/A
9:15 pm 21:15 Clear 35 1.8 27 -2.6 73 73 N 5 7 30.38 1029 10 16 N/A
9:35 pm 21:35 Clear 35 1.4 29 -1.9 79 79 N 3 6 30.38 1029 10 16 N/A
9:55 pm 21:55 Clear 33 0.7 28 -2.1 82 82 N 3 6 30.38 1029 10 16 N/A
10:15 pm 22:15 Clear 33 0.8 28 -2.3 80 80 N N/A 30.38 1029 10 16 N/A
10:35 pm 22:35 Clear 32 -0.2 28 -2.5 85 85 N N/A 30.38 1029 10 16 N/A
10:55 pm 22:55 Clear 31 -0.3 28 -2.3 87 87 N 3 6 30.38 1029 10 16 N/A
11:15 pm 23:15 Clear 32 0.1 28 -2 86 86 N 3 6 30.37 1028 10 16 N/A
11:35 pm 23:35 Clear 33 0.3 29 -1.7 87 87 N N/A 30.36 1028 10 16 N/A
11:55 pm 23:55 Clear 33 0.4 29 -1.9 85 85 N N/A 30.36 1028 10 16 N/A

Powered by AerisWeather